﻿測定場所 (Monitoring sites),日付 (Measurement date),時間 (Measurement time),線量率 最大値 (max) μGy/h,線量率 最小値 (min) μGy/h,線量率 平均値 (average) μGy/h,
足立 (Adachi),2023-05-28,23:01～24:00,0.0331,0.0284,0.0308,
足立 (Adachi),2023-05-28,22:01～23:00,0.0362,0.0300,0.0328,
足立 (Adachi),2023-05-28,21:01～22:00,0.0356,0.0277,0.0318,
足立 (Adachi),2023-05-28,20:01～21:00,0.0315,0.0278,0.0300,
足立 (Adachi),2023-05-28,19:01～20:00,0.0318,0.0267,0.0293,
足立 (Adachi),2023-05-28,18:01～19:00,0.0316,0.0276,0.0295,
足立 (Adachi),2023-05-28,17:01～18:00,0.0316,0.0275,0.0295,
足立 (Adachi),2023-05-28,16:01～17:00,0.0318,0.0275,0.0295,
足立 (Adachi),2023-05-28,15:01～16:00,0.0325,0.0282,0.0299,
足立 (Adachi),2023-05-28,14:01～15:00,0.0321,0.0270,0.0299,
足立 (Adachi),2023-05-28,13:01～14:00,0.0319,0.0276,0.0300,
足立 (Adachi),2023-05-28,12:01～13:00,0.0313,0.0282,0.0300,
足立 (Adachi),2023-05-28,11:01～12:00,0.0327,0.0277,0.0298,
足立 (Adachi),2023-05-28,10:01～11:00,0.0316,0.0278,0.0297,
足立 (Adachi),2023-05-28,09:01～10:00,0.0311,0.0274,0.0295,
足立 (Adachi),2023-05-28,08:01～09:00,0.0314,0.0273,0.0292,
足立 (Adachi),2023-05-28,07:01～08:00,0.0314,0.0274,0.0296,
足立 (Adachi),2023-05-28,06:01～07:00,0.0310,0.0270,0.0291,
足立 (Adachi),2023-05-28,05:01～06:00,0.0312,0.0274,0.0293,
足立 (Adachi),2023-05-28,04:01～05:00,0.0314,0.0270,0.0293,
足立 (Adachi),2023-05-28,03:01～04:00,0.0317,0.0264,0.0290,
足立 (Adachi),2023-05-28,02:01～03:00,0.0313,0.0266,0.0291,
足立 (Adachi),2023-05-28,01:01～02:00,0.0312,0.0267,0.0291,
足立 (Adachi),2023-05-28,00:01～01:00,0.0315,0.0274,0.0293,
足立 (Adachi),2023-05-27,23:01～24:00,0.0311,0.0269,0.0291,
足立 (Adachi),2023-05-27,22:01～23:00,0.0319,0.0269,0.0292,
足立 (Adachi),2023-05-27,21:01～22:00,0.0323,0.0271,0.0292,
足立 (Adachi),2023-05-27,20:01～21:00,0.0308,0.0270,0.0291,
足立 (Adachi),2023-05-27,19:01～20:00,0.0309,0.0270,0.0291,
足立 (Adachi),2023-05-27,18:01～19:00,0.0315,0.0272,0.0295,
足立 (Adachi),2023-05-27,17:01～18:00,0.0315,0.0273,0.0297,
足立 (Adachi),2023-05-27,16:01～17:00,0.0315,0.0270,0.0297,
足立 (Adachi),2023-05-27,15:01～16:00,0.0316,0.0274,0.0295,
足立 (Adachi),2023-05-27,14:01～15:00,0.0323,0.0279,0.0300,
足立 (Adachi),2023-05-27,13:01～14:00,0.0322,0.0274,0.0297,
足立 (Adachi),2023-05-27,12:01～13:00,0.0322,0.0273,0.0299,
足立 (Adachi),2023-05-27,11:01～12:00,0.0332,0.0273,0.0300,
足立 (Adachi),2023-05-27,10:01～11:00,0.0319,0.0280,0.0297,
足立 (Adachi),2023-05-27,09:01～10:00,0.0322,0.0274,0.0297,
足立 (Adachi),2023-05-27,08:01～09:00,0.0322,0.0281,0.0299,
足立 (Adachi),2023-05-27,07:01～08:00,0.0322,0.0276,0.0298,
足立 (Adachi),2023-05-27,06:01～07:00,0.0317,0.0270,0.0298,
足立 (Adachi),2023-05-27,05:01～06:00,0.0319,0.0272,0.0296,
足立 (Adachi),2023-05-27,04:01～05:00,0.0318,0.0270,0.0295,
足立 (Adachi),2023-05-27,03:01～04:00,0.0308,0.0259,0.0291,
足立 (Adachi),2023-05-27,02:01～03:00,0.0307,0.0264,0.0290,
足立 (Adachi),2023-05-27,01:01～02:00,0.0311,0.0269,0.0292,
足立 (Adachi),2023-05-27,00:01～01:00,0.0311,0.0271,0.0290,
足立 (Adachi),2023-05-26,23:01～24:00,0.0308,0.0270,0.0290,
足立 (Adachi),2023-05-26,22:01～23:00,0.0316,0.0269,0.0293,
足立 (Adachi),2023-05-26,21:01～22:00,0.0317,0.0270,0.0293,
足立 (Adachi),2023-05-26,20:01～21:00,0.0311,0.0269,0.0288,
足立 (Adachi),2023-05-26,19:01～20:00,0.0311,0.0274,0.0292,
足立 (Adachi),2023-05-26,18:01～19:00,0.0311,0.0273,0.0291,
足立 (Adachi),2023-05-26,17:01～18:00,0.0310,0.0266,0.0284,
足立 (Adachi),2023-05-26,16:01～17:00,0.0317,0.0267,0.0289,
足立 (Adachi),2023-05-26,15:01～16:00,0.0313,0.0270,0.0292,
足立 (Adachi),2023-05-26,14:01～15:00,0.0311,0.0270,0.0289,
足立 (Adachi),2023-05-26,13:01～14:00,0.0321,0.0269,0.0292,
足立 (Adachi),2023-05-26,12:01～13:00,0.0327,0.0252,0.0294,
足立 (Adachi),2023-05-26,11:01～12:00,0.0308,0.0268,0.0290,
足立 (Adachi),2023-05-26,10:01～11:00,0.0310,0.0270,0.0287,
足立 (Adachi),2023-05-26,09:01～10:00,0.0310,0.0269,0.0286,
足立 (Adachi),2023-05-26,08:01～09:00,0.0305,0.0272,0.0289,
足立 (Adachi),2023-05-26,07:01～08:00,0.0306,0.0252,0.0285,
足立 (Adachi),2023-05-26,06:01～07:00,0.0306,0.0270,0.0287,
足立 (Adachi),2023-05-26,05:01～06:00,0.0310,0.0263,0.0287,
足立 (Adachi),2023-05-26,04:01～05:00,0.0308,0.0270,0.0289,
足立 (Adachi),2023-05-26,03:01～04:00,0.0316,0.0270,0.0290,
足立 (Adachi),2023-05-26,02:01～03:00,0.0310,0.0263,0.0289,
足立 (Adachi),2023-05-26,01:01～02:00,0.0312,0.0273,0.0292,
足立 (Adachi),2023-05-26,00:01～01:00,0.0321,0.0273,0.0290,
足立 (Adachi),2023-05-25,23:01～24:00,0.0308,0.0276,0.0291,
足立 (Adachi),2023-05-25,22:01～23:00,0.0310,0.0267,0.0289,
足立 (Adachi),2023-05-25,21:01～22:00,0.0308,0.0261,0.0290,
足立 (Adachi),2023-05-25,20:01～21:00,0.0315,0.0266,0.0290,
足立 (Adachi),2023-05-25,19:01～20:00,0.0318,0.0263,0.0293,
足立 (Adachi),2023-05-25,18:01～19:00,0.0311,0.0263,0.0289,
足立 (Adachi),2023-05-25,17:01～18:00,0.0308,0.0270,0.0288,
足立 (Adachi),2023-05-25,16:01～17:00,0.0317,0.0260,0.0294,
足立 (Adachi),2023-05-25,15:01～16:00,0.0314,0.0262,0.0294,
足立 (Adachi),2023-05-25,14:01～15:00,0.0316,0.0275,0.0294,
足立 (Adachi),2023-05-25,13:01～14:00,0.0320,0.0267,0.0294,
足立 (Adachi),2023-05-25,12:01～13:00,0.0315,0.0266,0.0292,
足立 (Adachi),2023-05-25,11:01～12:00,0.0307,0.0270,0.0287,
足立 (Adachi),2023-05-25,10:01～11:00,0.0311,0.0270,0.0292,
足立 (Adachi),2023-05-25,09:01～10:00,0.0314,0.0270,0.0293,
足立 (Adachi),2023-05-25,08:01～09:00,0.0317,0.0271,0.0290,
足立 (Adachi),2023-05-25,07:01～08:00,0.0314,0.0269,0.0292,
足立 (Adachi),2023-05-25,06:01～07:00,0.0315,0.0279,0.0295,
足立 (Adachi),2023-05-25,05:01～06:00,0.0308,0.0270,0.0292,
足立 (Adachi),2023-05-25,04:01～05:00,0.0315,0.0275,0.0292,
足立 (Adachi),2023-05-25,03:01～04:00,0.0315,0.0264,0.0290,
足立 (Adachi),2023-05-25,02:01～03:00,0.0303,0.0268,0.0289,
足立 (Adachi),2023-05-25,01:01～02:00,0.0313,0.0270,0.0292,
足立 (Adachi),2023-05-25,00:01～01:00,0.0307,0.0270,0.0289,
足立 (Adachi),2023-05-24,23:01～24:00,0.0304,0.0270,0.0289,
足立 (Adachi),2023-05-24,22:01～23:00,0.0318,0.0268,0.0290,
足立 (Adachi),2023-05-24,21:01～22:00,0.0314,0.0265,0.0292,
足立 (Adachi),2023-05-24,20:01～21:00,0.0310,0.0264,0.0288,
足立 (Adachi),2023-05-24,19:01～20:00,0.0308,0.0267,0.0290,
足立 (Adachi),2023-05-24,18:01～19:00,0.0308,0.0269,0.0288,
足立 (Adachi),2023-05-24,17:01～18:00,0.0310,0.0270,0.0289,
足立 (Adachi),2023-05-24,16:01～17:00,0.0320,0.0276,0.0295,
足立 (Adachi),2023-05-24,15:01～16:00,0.0311,0.0276,0.0293,
足立 (Adachi),2023-05-24,14:01～15:00,0.0314,0.0269,0.0288,
足立 (Adachi),2023-05-24,13:01～14:00,0.0313,0.0273,0.0292,
足立 (Adachi),2023-05-24,12:01～13:00,0.0316,0.0262,0.0286,
足立 (Adachi),2023-05-24,11:01～12:00,0.0312,0.0260,0.0288,
足立 (Adachi),2023-05-24,10:01～11:00,0.0310,0.0270,0.0287,
足立 (Adachi),2023-05-24,09:01～10:00,0.0309,0.0252,0.0285,
足立 (Adachi),2023-05-24,08:01～09:00,0.0312,0.0270,0.0287,
足立 (Adachi),2023-05-24,07:01～08:00,0.0306,0.0266,0.0285,
足立 (Adachi),2023-05-24,06:01～07:00,0.0304,0.0270,0.0287,
足立 (Adachi),2023-05-24,05:01～06:00,0.0312,0.0270,0.0286,
足立 (Adachi),2023-05-24,04:01～05:00,0.0309,0.0264,0.0289,
足立 (Adachi),2023-05-24,03:01～04:00,0.0313,0.0269,0.0289,
足立 (Adachi),2023-05-24,02:01～03:00,0.0306,0.0267,0.0288,
足立 (Adachi),2023-05-24,01:01～02:00,0.0311,0.0274,0.0292,
足立 (Adachi),2023-05-24,00:01～01:00,0.0311,0.0276,0.0294,
足立 (Adachi),2023-05-23,23:01～24:00,0.0359,0.0287,0.0319,
足立 (Adachi),2023-05-23,22:01～23:00,0.0461,0.0336,0.0391,
足立 (Adachi),2023-05-23,21:01～22:00,0.0542,0.0408,0.0487,
足立 (Adachi),2023-05-23,20:01～21:00,0.0411,0.0290,0.0340,
足立 (Adachi),2023-05-23,19:01～20:00,0.0323,0.0287,0.0305,
足立 (Adachi),2023-05-23,18:01～19:00,0.0331,0.0286,0.0306,
足立 (Adachi),2023-05-23,17:01～18:00,0.0345,0.0303,0.0328,
足立 (Adachi),2023-05-23,16:01～17:00,0.0405,0.0311,0.0358,
足立 (Adachi),2023-05-23,15:01～16:00,0.0457,0.0388,0.0425,
足立 (Adachi),2023-05-23,14:01～15:00,0.0501,0.0426,0.0458,
足立 (Adachi),2023-05-23,13:01～14:00,0.0528,0.0475,0.0494,
足立 (Adachi),2023-05-23,12:01～13:00,0.0494,0.0359,0.0434,
足立 (Adachi),2023-05-23,11:01～12:00,0.0402,0.0332,0.0371,
足立 (Adachi),2023-05-23,10:01～11:00,0.0410,0.0352,0.0382,
足立 (Adachi),2023-05-23,09:01～10:00,0.0442,0.0358,0.0392,
足立 (Adachi),2023-05-23,08:01～09:00,0.0478,0.0406,0.0449,
足立 (Adachi),2023-05-23,07:01～08:00,0.0496,0.0381,0.0446,
足立 (Adachi),2023-05-23,06:01～07:00,0.0415,0.0353,0.0379,
足立 (Adachi),2023-05-23,05:01～06:00,0.0461,0.0353,0.0405,
足立 (Adachi),2023-05-23,04:01～05:00,0.0469,0.0388,0.0432,
足立 (Adachi),2023-05-23,03:01～04:00,0.0420,0.0330,0.0363,
足立 (Adachi),2023-05-23,02:01～03:00,0.0372,0.0311,0.0339,
足立 (Adachi),2023-05-23,01:01～02:00,0.0375,0.0302,0.0335,
足立 (Adachi),2023-05-23,00:01～01:00,0.0314,0.0280,0.0299,
足立 (Adachi),2023-05-22,23:01～24:00,0.0332,0.0290,0.0309,
足立 (Adachi),2023-05-22,22:01～23:00,0.0343,0.0297,0.0321,
足立 (Adachi),2023-05-22,21:01～22:00,0.0359,0.0282,0.0318,
足立 (Adachi),2023-05-22,20:01～21:00,0.0322,0.0277,0.0300,
足立 (Adachi),2023-05-22,19:01～20:00,0.0323,0.0275,0.0299,
足立 (Adachi),2023-05-22,18:01～19:00,0.0326,0.0281,0.0300,
足立 (Adachi),2023-05-22,17:01～18:00,0.0325,0.0276,0.0299,
足立 (Adachi),2023-05-22,16:01～17:00,0.0323,0.0286,0.0303,
足立 (Adachi),2023-05-22,15:01～16:00,0.0325,0.0276,0.0301,
足立 (Adachi),2023-05-22,14:01～15:00,0.0326,0.0283,0.0302,
足立 (Adachi),2023-05-22,13:01～14:00,0.0326,0.0277,0.0303,
足立 (Adachi),2023-05-22,12:01～13:00,0.0320,0.0284,0.0301,
足立 (Adachi),2023-05-22,11:01～12:00,0.0329,0.0277,0.0303,
足立 (Adachi),2023-05-22,10:01～11:00,0.0322,0.0280,0.0301,
足立 (Adachi),2023-05-22,09:01～10:00,0.0316,0.0271,0.0295,
足立 (Adachi),2023-05-22,08:01～09:00,0.0317,0.0269,0.0290,
足立 (Adachi),2023-05-22,07:01～08:00,0.0318,0.0271,0.0295,
足立 (Adachi),2023-05-22,06:01～07:00,0.0318,0.0274,0.0295,
足立 (Adachi),2023-05-22,05:01～06:00,0.0313,0.0276,0.0297,
足立 (Adachi),2023-05-22,04:01～05:00,0.0318,0.0272,0.0296,
足立 (Adachi),2023-05-22,03:01～04:00,0.0322,0.0273,0.0297,
足立 (Adachi),2023-05-22,02:01～03:00,0.0311,0.0270,0.0293,
足立 (Adachi),2023-05-22,01:01～02:00,0.0317,0.0277,0.0295,
足立 (Adachi),2023-05-22,00:01～01:00,0.0312,0.0274,0.0294,
